This demonstration page uses our WeatherBlox Daily Observations layout. Learn more.

Left ArrowRight Arrow

Hourly Observations for September 12, 2021

Temp ( °F °C ) Dew Point ( °F °C ) Humidity (%) Winds ( mph kmh ) Pressure ( in mb ) Visibility ( mi km ) Precip ( " mm )
12:53 am 00:53 Clear 69 20.6 64 17.8 84 84 NNE 5 7 29.83 1010 10 16 0.00 0.00
1:53 am 01:53 Clear 68 20 64 17.8 87 87 N 9 15 29.85 1011 10 16 0.00 0.00
2:53 am 02:53 Clear 69 20.6 65 18.3 87 87 N 7 11 29.88 1012 10 16 0.00 0.00
3:53 am 03:53 Clear 72 22.2 69 20.6 91 91 NNE 13 20 29.90 1013 9 14 0.00 0.00
4:53 am 04:53 Mostly Clear 70 21.1 67 19.4 90 90 NE 7 11 29.94 1014 10 16 0.00 0.00
5:53 am 05:53 Clear 69 20.6 66 18.9 90 90 E 10 17 29.93 1013 10 16 0.00 0.00
6:53 am 06:53 Clear 69 20.6 65 18.3 87 87 E 7 11 29.91 1013 10 16 0.00 0.00
7:53 am 07:53 Mostly Sunny 70 21.1 66 18.9 87 87 ESE 15 24 29.89 1012 8 13 0.00 0.00
8:53 am 08:53 Mostly Sunny 70 21.1 66 18.9 87 87 ENE 6 9 29.95 1014 8 13 0.00 0.00
9:53 am 09:53 Mostly Sunny 71 21.7 65 18.3 81 81 VRB 6 9 29.97 1015 10 16 0.00 0.00
10:39 am 10:39 Mostly Cloudy 72 22.2 67 19.4 84 84 N 17 28 29.96 1015 10 16 0.00 0.00
10:46 am 10:46 Partly Cloudy 72 22.2 66 18.9 82 82 N 17 28 29.97 1015 10 16 0.00 0.00
10:53 am 10:53 Partly Cloudy 71 21.7 66 18.9 84 84 N 16 26 30.00 1016 10 16 0.00 0.00
11:53 am 11:53 Mostly Sunny 71 21.7 64 17.8 79 79 N 17 28 30.01 1016 10 16 0.00 0.00
12:44 pm 12:44 Sunny with Nearby Thunderstorms 70 21.1 62 16.7 76 76 N 14 22 29.99 1016 10 16 0.00 0.00
12:53 pm 12:53 Partly Cloudy with Nearby Thunderstorms 71 21.7 62 16.7 73 73 NNE 16 26 30.00 1016 10 16 0.00 0.00
1:12 pm 13:12 Mostly Sunny 72 22 63 17 73 73 NNE 12 19 29.97 1015 10 16 0.00 0.00
1:53 pm 13:53 Sunny 75 23.9 64 17.8 69 69 ENE 12 19 29.98 1015 10 16 0.00 0.00
2:53 pm 14:53 Mostly Sunny 77 25 65 18.3 66 66 E 12 19 29.98 1015 10 16 0.00 0.00
3:53 pm 15:53 Sunny 79 26.1 65 18.3 62 62 NE 10 17 29.97 1015 10 16 0.00 0.00
4:53 pm 16:53 Sunny 79 26.1 65 18.3 62 62 E 8 13 29.97 1015 10 16 0.00 0.00
5:53 pm 17:53 Sunny 78 25.6 65 18.3 64 64 E 9 15 29.97 1015 10 16 0.00 0.00
6:53 pm 18:53 Sunny 76 24.4 65 18.3 69 69 ENE 9 15 29.98 1015 10 16 0.00 0.00
7:53 pm 19:53 Clear 73 22.8 65 18.3 76 76 ENE 10 17 29.98 1015 10 16 0.00 0.00
8:53 pm 20:53 Clear 70 21.1 64 17.8 82 82 ENE 8 13 30.00 1016 10 16 0.00 0.00
9:53 pm 21:53 Clear 68 20 64 17.8 87 87 E 8 13 30.00 1016 10 16 0.00 0.00
10:53 pm 22:53 Clear 67 19.4 63 17.2 87 87 undefined N/A 30.00 1016 10 16 0.00 0.00
11:53 pm 23:53 Clear 66 18.9 63 17.2 90 90 E 3 6 30.01 1016 10 16 0.00 0.00

Powered by AerisWeather